Weather History for KJMR - August, 2014

Change the Weather History Date:

Wednesday, August 20, 2014

  Actual Average Record
Temperature  
Mean Temperature 65 °F -  
Max Temperature 75 °F 77 °F 95 °F (1976)
Min Temperature 55 °F 51 °F 33 °F (1950)
Growing Degree Days 15 (Base 50)    
Moisture  
Dew Point 59 °F    
Average Humidity 83    
Maximum Humidity 100    
Minimum Humidity 61    
Precipitation  
Precipitation 0.00 in - - ()
Sea Level Pressure  
Sea Level Pressure 29.88 in    
Wind  
Wind Speed 1 mph (ESE)    
Max Wind Speed 7 mph    
Max Gust Speed -    
Visibility 9 miles    
Events Fog    
Averages and records for this station are not official NWS values.
T = Trace of Precipitation, MM = Missing Value Source: NWS Daily Summary

Daily Weather History Graph

Daily Weather History Graph

Search for Another Location

Airport or City:

Trip Planner

Search our weather history database for the weather conditions in past years. The results will help you decide how hot, cold, wet, or windy it might be!

Date:

Astronomy

Aug. 20, 2014 Rise Set
Actual Time 6:19 AM CDT 8:12 PM CDT
Civil Twilight 5:47 AM CDT 8:44 PM CDT
Nautical Twilight 5:07 AM CDT 9:23 PM CDT
Astronomical Twilight 4:24 AM CDT 10:06 PM CDT
Moon 1:53 AM CDT (8/20) 5:03 PM CDT (8/20)
Length of Visible Light 14h 57m
Length of Day
13h 53m
Waning Crescent, 20% of the Moon is Illuminated
Aug 20
Waning Crescent
Aug 25
New
Sep 2
First Quarter
Sep 8
Full
Sep 15
Last Quarter

Hourly Weather History & Observations

Time (CDT) Temp. Dew Point Humidity Pressure Visibility Wind Dir Wind Speed Gust Speed Precip Events Conditions
12:13 AM 62.6 °F 60.8 °F 94% 29.83 in 10.0 mi Calm Calm - N/A   Clear
12:33 AM 62.6 °F 60.8 °F 94% 29.83 in 10.0 mi Calm Calm - N/A   Clear
12:53 AM 60.8 °F 59.0 °F 94% 29.83 in 10.0 mi Calm Calm - N/A   Clear
1:13 AM 60.8 °F 59.0 °F 94% 29.83 in 10.0 mi Calm Calm - N/A   Clear
1:33 AM 60.8 °F 59.0 °F 94% 29.83 in 7.0 mi Calm Calm - N/A   Clear
1:53 AM 59.0 °F 57.2 °F 94% 29.83 in 10.0 mi Calm Calm - N/A   Clear
2:13 AM 59.0 °F 57.2 °F 94% 29.84 in 1.8 mi Calm Calm - N/A   Mist
2:33 AM 57.2 °F 55.4 °F 94% 29.84 in 2.0 mi Calm Calm - N/A   Mist
2:53 AM 57.2 °F 55.4 °F 94% 29.85 in 10.0 mi Calm Calm - N/A   Clear
3:13 AM 57.2 °F 55.4 °F 94% 29.85 in 2.0 mi Calm Calm - N/A   Mist
3:33 AM 55.4 °F 55.4 °F 100% 29.85 in 0.5 mi Calm Calm - N/A Fog Fog
3:53 AM 55.4 °F 53.6 °F 94% 29.85 in 3.0 mi Calm Calm - N/A   Clear
4:13 AM 55.4 °F 53.6 °F 94% 29.85 in 1.0 mi Calm Calm - N/A   Mist
4:33 AM 55.4 °F 53.6 °F 94% 29.85 in 3.0 mi Calm Calm - N/A   Clear
4:53 AM 55.4 °F 55.4 °F 100% 29.86 in 10.0 mi Calm Calm - N/A   Clear
5:13 AM 55.4 °F 53.6 °F 94% 29.86 in 10.0 mi Calm Calm - N/A   Clear
5:33 AM 55.4 °F 53.6 °F 94% 29.87 in 2.5 mi Calm Calm - N/A   Mist
5:53 AM 55.4 °F 53.6 °F 94% 29.86 in 7.0 mi Calm Calm - N/A   Clear
6:13 AM 55.4 °F 53.6 °F 94% 29.87 in 10.0 mi Calm Calm - N/A   Clear
6:33 AM 55.4 °F 53.6 °F 94% 29.87 in 7.0 mi Calm Calm - N/A   Clear
6:53 AM 55.4 °F 53.6 °F 94% 29.87 in 10.0 mi Calm Calm - N/A   Clear
7:13 AM 55.4 °F 55.4 °F 100% 29.87 in 10.0 mi Calm Calm - N/A   Scattered Clouds
7:33 AM 57.2 °F 55.4 °F 94% 29.88 in 1.5 mi Calm Calm - N/A   Overcast
7:53 AM 59.0 °F 57.2 °F 94% 29.89 in 1.5 mi ESE 3.5 mph - N/A   Overcast
8:13 AM 59.0 °F 57.2 °F 94% 29.89 in 1.0 mi East 4.6 mph - N/A   Overcast
8:33 AM 59.0 °F 57.2 °F 94% 29.90 in 7.0 mi East 4.6 mph - N/A   Overcast
8:53 AM 59.0 °F 59.0 °F 100% 29.91 in 10.0 mi Calm Calm - N/A   Overcast
9:13 AM 60.8 °F 59.0 °F 94% 29.93 in 10.0 mi South 4.6 mph - N/A   Overcast
9:33 AM 60.8 °F 60.8 °F 100% 29.91 in 10.0 mi Calm Calm - N/A   Overcast
9:53 AM 62.6 °F 62.6 °F 100% 29.92 in 10.0 mi ESE 3.5 mph - N/A   Overcast
10:13 AM 64.4 °F 62.6 °F 94% 29.91 in 10.0 mi Calm Calm - N/A   Overcast
10:33 AM 68.0 °F 60.8 °F 78% 29.90 in 10.0 mi East 5.8 mph - N/A   Mostly Cloudy
10:53 AM 68.0 °F 60.8 °F 78% 29.89 in 10.0 mi ENE 4.6 mph - N/A   Scattered Clouds
11:13 AM 69.8 °F 60.8 °F 73% 29.89 in 10.0 mi Calm Calm - N/A   Scattered Clouds
11:33 AM 69.8 °F 60.8 °F 73% 29.90 in 10.0 mi ESE 4.6 mph - N/A   Scattered Clouds
11:53 AM 69.8 °F 60.8 °F 73% 29.90 in 10.0 mi ENE 6.9 mph - N/A   Mostly Cloudy
12:13 PM 69.8 °F 60.8 °F 73% 29.90 in 10.0 mi East 6.9 mph - N/A   Mostly Cloudy
12:33 PM 69.8 °F 59.0 °F 68% 29.89 in 10.0 mi Calm Calm - N/A   Scattered Clouds
12:53 PM 71.6 °F 60.8 °F 69% 29.89 in 10.0 mi ENE 4.6 mph - N/A   Clear
1:13 PM 71.6 °F 60.8 °F 69% 29.89 in 10.0 mi SSE 3.5 mph - N/A   Scattered Clouds
1:33 PM 73.4 °F 60.8 °F 65% 29.90 in 10.0 mi Calm Calm - N/A   Scattered Clouds
1:53 PM 73.4 °F 59.0 °F 61% 29.90 in 10.0 mi ESE 3.5 mph - N/A   Scattered Clouds
2:13 PM 73.4 °F 59.0 °F 61% 29.90 in 10.0 mi ESE 6.9 mph - N/A   Scattered Clouds
2:33 PM 73.4 °F 59.0 °F 61% 29.90 in 10.0 mi SSE 5.8 mph - N/A   Mostly Cloudy
2:53 PM 73.4 °F 60.8 °F 65% 29.89 in 10.0 mi Calm Calm - N/A   Scattered Clouds
3:13 PM 75.2 °F 60.8 °F 61% 29.90 in 10.0 mi East 5.8 mph - N/A   Clear
3:33 PM 73.4 °F 60.8 °F 65% 29.90 in 10.0 mi ESE 3.5 mph - N/A   Scattered Clouds
3:53 PM 73.4 °F 60.8 °F 65% 29.90 in 10.0 mi SE 3.5 mph - N/A   Scattered Clouds
4:13 PM 73.4 °F 60.8 °F 65% 29.90 in 10.0 mi South 3.5 mph - N/A   Scattered Clouds
4:33 PM 75.2 °F 60.8 °F 61% 29.89 in 10.0 mi Calm Calm - N/A   Scattered Clouds
4:53 PM 73.4 °F 60.8 °F 65% 29.89 in 10.0 mi East 3.5 mph - N/A   Clear
5:13 PM 73.4 °F 60.8 °F 65% 29.89 in 10.0 mi Calm Calm - N/A   Clear
5:33 PM 73.4 °F 60.8 °F 65% 29.89 in 10.0 mi East 3.5 mph - N/A   Clear
5:53 PM 73.4 °F 60.8 °F 65% 29.88 in 10.0 mi East 4.6 mph - N/A   Clear
6:13 PM 73.4 °F 60.8 °F 65% 29.89 in 10.0 mi East 4.6 mph - N/A   Clear
6:33 PM 73.4 °F 60.8 °F 65% 29.88 in 10.0 mi East 4.6 mph - N/A   Clear
6:53 PM 71.6 °F 60.8 °F 69% 29.88 in 10.0 mi Calm Calm - N/A   Clear
7:13 PM 69.8 °F 60.8 °F 73% 29.89 in 10.0 mi Calm Calm - N/A   Clear
7:33 PM 69.8 °F 62.6 °F 78% 29.89 in 10.0 mi Calm Calm - N/A   Clear
7:53 PM 69.8 °F 62.6 °F 78% 29.90 in 10.0 mi Calm Calm - N/A   Clear
8:13 PM 68.0 °F 60.8 °F 78% 29.90 in 10.0 mi East 3.5 mph - N/A   Clear
8:33 PM 66.2 °F 60.8 °F 83% 29.90 in 10.0 mi Calm Calm - N/A   Clear
8:53 PM 64.4 °F 60.8 °F 88% 29.91 in 10.0 mi Calm Calm - N/A   Clear
9:13 PM 64.4 °F 60.8 °F 88% 29.92 in 10.0 mi East 3.5 mph - N/A   Clear
9:33 PM 64.4 °F 60.8 °F 88% 29.92 in 10.0 mi Calm Calm - N/A   Clear
9:53 PM 64.4 °F 60.8 °F 88% 29.92 in 10.0 mi East 3.5 mph - N/A   Clear
10:13 PM 64.4 °F 60.8 °F 88% 29.92 in 10.0 mi East 4.6 mph - N/A   Clear
10:33 PM 64.4 °F 60.8 °F 88% 29.92 in 10.0 mi Calm Calm - N/A   Clear
10:53 PM 64.4 °F 60.8 °F 88% 29.92 in 10.0 mi East 4.6 mph - N/A   Scattered Clouds
11:13 PM 64.4 °F 60.8 °F 88% 29.92 in 10.0 mi East 3.5 mph - N/A   Clear
11:33 PM 64.4 °F 60.8 °F 88% 29.92 in 10.0 mi East 3.5 mph - N/A   Mostly Cloudy
11:53 PM 64.4 °F 60.8 °F 88% 29.91 in 10.0 mi ESE 4.6 mph - N/A   Scattered Clouds